AirNav   Air Wisconsin Up To $57,000 Bonus
 
 456 users online  

KTZV Tompkinsville-Monroe County Airport
Tompkinsville, Kentucky, USA

GOING TO TOMPKINSVILLE?


FAA INFORMATION EFFECTIVE 10 OCTOBER 2019

Location

FAA Identifier: TZV
Lat/Long: 36-43-44.5000N 085-39-08.6000W
36-43.741667N 085-39.143333W
36.7290278,-85.6523889
(estimated)
Elevation: 1036.2 ft. / 315.8 m (surveyed)
Variation: 04W (2010)
From city: 2 miles NE of TOMPKINSVILLE, KY
Time zone: UTC -5 (UTC -6 during Standard Time)
Zip code: 42167

Airport Operations

Airport use: Open to the public
Activation date: 11/1988
Control tower: no
ARTCC: MEMPHIS CENTER
FSS: LOUISVILLE FLIGHT SERVICE STATION
NOTAMs facility: LOU (NOTAM-D service available)
Attendance: UNATNDD
Wind indicator: lighted
Segmented circle: no
Lights: ACTVT REIL RY 04/ 22; PAPI RY 04/ 22; MIRL RY 04/22 - CTAF.
Beacon: white-green (lighted land airport)
Operates sunset to sunrise.

Airport Communications

CTAF/UNICOM: 123.05
WX AWOS-AV: 123.050
  • APCH/DEP SVC PRVDD BY MEMPHIS ARTCC ON FREQS 132.9/263.1 (NASHVILLE/JOELTON RCAG).

Nearby radio navigation aids

VOR radial/distance  VOR name  Freq  Var
LVTr292/24.9LIVINGSTON VOR/DME108.4002W
BWGr106/39.8BOWLING GREEN VORTAC117.9002E

Airport Services

Fuel available: 100LL
Parking: hangars and tiedowns
Airframe service: NONE
Powerplant service: NONE

Runway Information

Runway 4/22

Dimensions: 4000 x 75 ft. / 1219 x 23 m
Surface: asphalt, in good condition
Weight bearing capacity: 
Single wheel: 12.0
Runway edge lights: medium intensity
Gradient: NE
RUNWAY 4  RUNWAY 22
Latitude: 36-43.470603N36-44.014112N
Longitude: 085-39.374307W085-38.911070W
Elevation: 1015.3 ft.1036.2 ft.
Traffic pattern: leftleft
Runway heading: 038 magnetic, 034 true218 magnetic, 214 true
Markings: nonprecision, in good conditionnonprecision, in good condition
Visual slope indicator: 2-light PAPI on left (3.75 degrees glide path)2-light PAPI on left (3.00 degrees glide path)
Runway end identifier lights: yesyes
Touchdown point: yes, no lightsyes, no lights
Obstructions: 116 ft. trees, 2200 ft. from runway, 558 ft. left of centerline, 17:1 slope to clear35 ft. trees, 720 ft. from runway, 194 ft. left of centerline, 14:1 slope to clear

Airport Ownership and Management from official FAA records

Ownership: Publicly-owned
Owner: TOMPKINSVILLE-MONROE CO APT
P.O. BOX 175
TOMPKINSVILLE, KY 42167
Phone 270-487-0678
Manager: MARSHALL HODGES
661 LYONS CHAPEL ROAD
TOMPKINSVILLE, KY 42167
Phone 214-458-0600

Airport Operational Statistics

Aircraft based on the field: 16
Single engine airplanes: 13
Multi engine airplanes: 3
    
Aircraft operations: avg 31/day *
76% local general aviation
14% transient general aviation
7% air taxi
3% military
* for 12-month period ending 04 April 2018

Additional Remarks

USE CTAF FREQ ON KEYPAD FOR TERMINAL ACCESS.
FOR CD CTC MEMPHIS ARTCC AT 901-368-8453.

Instrument Procedures

NOTE: All procedures below are presented as PDF files. If you need a reader for these files, you should download the free Adobe Reader.

NOT FOR NAVIGATION. Please procure official charts for flight.
FAA instrument procedures published for use from 10 October 2019 at 0901Z to 17 November 2019 at 0900Z.

 
IAPs - Instrument Approach Procedures
RNAV (GPS) RWY 04 **CHANGED**   download (178KB)
RNAV (GPS) RWY 22 **CHANGED**   download (178KB)
NOTE: Special Take-Off Minimums/Departure Procedures apply   download (126KB)

Other nearby airports with instrument procedures:

3M7 - Lafayette Municipal Airport (23 nm SW)
KGLW - Glasgow Municipal Airport (23 nm NW)
8A3 - Livingston Municipal Airport (25 nm SE)
K24 - Russell County Airport (31 nm NE)
KEKQ - Wayne County Airport (39 nm E)
 
Loc | Ops | Rwys | IFR | FBO | Links
Com | Nav | Svcs | Stats | Notes
Area around KTZV (Tompkinsville-Monroe County Airport)
 
Road maps at: MapQuest Bing Google
 
Aerial photo
WARNING: Photo may not be current or correct
Aerial photo of KTZV (Tompkinsville-Monroe County Airport)
Do you have a better or more recent aerial photo of Tompkinsville-Monroe County Airport that you would like to share? If so, please send us your photo.

 
Sectional chart

 
Airport distance calculator
Flying to Tompkinsville-Monroe County Airport? Find the distance to fly.

From to KTZV

Sunrise and sunset
Times for 13-Oct-2019
 Local
(UTC-5)
 Zulu
(UTC)
Morning civil twilight06:2311:23
Sunrise06:4911:49
Sunset18:0923:09
Evening civil twilight18:3523:35

Current date and time
Zulu (UTC)  14-Oct-2019 04:52:13
Local (UTC-5)  13-Oct-2019 23:52:13
 
METAR
KGLW 
23nm NW 
140435Z AUTO 00000KT 10SM CLR 06/04 A3006 RMK AO2 T00590042
K8A3 
25nm SE 
140435Z AUTO 22007KT 10SM CLR 11/03 A3006 RMK A01
KEKQ 
39nm E 
140356Z AUTO 03008KT 10SM CLR 03/03 A3008 RMK AO2 SLP183 T00330028 402111011 PNO $
KBWG 
39nm W 
140353Z AUTO 00000KT 10SM CLR 09/05 A3006 RMK AO2 SLP178 T00890050
K1M5 
41nm W 
140435Z AUTO 00000KT 10SM CLR 09/05 A3005 RMK A01
KAAS 
41nm NE 
140435Z AUTO 00000KT 10SM CLR 10/03 A3010 RMK AO1
KXNX 
42nm SW 
140435Z AUTO 00000KT 10SM CLR 06/05 A3009 RMK A01
KM54 
45nm SW 
140435Z AUTO 22004KT 10SM CLR 08/04 A3005 RMK A01
TAF
NOTAMs
Click for the latest NOTAMs
NOTAMs are issued by the DoD/FAA and will open in a separate window not controlled by AirNav.

 

 
 

FBO, Fuel Providers, and Aircraft Ground Support

  
 Business Name 
 
 Contact 
 
 Services / Description 
 
Fuel Prices
 
Comments
  
Tompkinsville-Monroe County Airport 270-487-0678
no information available

If you are affiliated with Tompkinsville-Monroe County Airport and would like to show here your services, contact info, web link, logo, and more, click here
100LL
SS $3.99 
 Updated 05-Dec-2016
 
   write
SS=Self service
Update Fuel Prices
 

Would you like to see your business listed on this page?

 If your business provides an interesting product or service to pilots, flight crews, aircraft, or users of the Tompkinsville-Monroe County Airport, you should consider listing it here.  To start the listing process, click on the button below
 
Add a business
 

Other Pages about Tompkinsville-Monroe County Airport

www.monroecountyky.com/tzv_airport.html
 
Update a link
 
Copyright © AirNav, LLC. All rights reserved. Privacy Policy  Contact